DECAYED

OBJECT AR, 57043 (Decayed)

Orbit data source: Space-Track

You're viewing an Uncataloged Satellite

Recently launched and/or uncataloged satellites may have evolving metadata. Metadata may include but not limited to: Owner, Maufacturer, Bus, Motor, and Mission.

OBJECT AR, 57043 was a Chinese satellite in SSO that was launched on Thu, 15 Jun 2023 UTC via a CHANG ZHENG 2D launch vehicle from the Taiyaun Space Center, China (TSC). Unknown objects in Earth's orbit typically refer to objects detected orbiting the Earth but have not yet been identified or cataloged. These objects could be anything from previously untracked satellites, spent rocket stages, debris from satellite collisions, or even natural meteoroids temporarily captured by Earth's gravity. This object's orbit decayed before it could be identified.

Loading next visibility...
Identifier
57043, 2023-085AR
Orbit
Decayed
Country
Flag of CNCN / PRC
Related business
None
Manufacturer
Unknown
Mission
Decayed Commercial Imaging
Bus & Motor
Unknown
Mass
Unknown
Launch date (UTC)
2023-06-15 (3 years ago)
Launch vehicle
CHANG ZHENG 2D
Launch site
Taiyaun Space Center, China (TSC)
Object type
Unknown
Shape & HBR
Box, 0.8 m
Radar Cross Section
2.000 m², Medium (>0.1 m² and < 1m²)

Expand to show TLE details & history
Last TLE update: 8 months ago

TLE from 8 months ago
0 OBJECT AR
1 57043U 23085AR  25284.32785293  .02318882  74260-2  19460-2 0  9992
2 57043  97.4646  47.3130 0007813 271.6543  88.3848 16.15601258129851
Epoch: 2025-10-11T07:52Z
TLE epoch observation values (Epoch: 2025-10-11T07:52:06.493Z)
Latitude
-0.00003°
Longitude
-90.87497°
Altitude
234.597 km
Speed
7.766 km/s
True Right ascension
03h 09m 15s
True Declination
0° 00' 00"
Sunlit
Object was in full shadow at epoch
Visualization orbit readout
Latitude
Unknown
Longitude
Unknown
Altitude
Unknown
Speed
Unknown
Apparent Right ascension
Unknown
Apparent Declination
Unknown
Sunlit
N/A
Visualization observer readout
Local Sidereal Time
21:31:49
Azimuth
Unknown
Elevation
Unknown
Doppler factor
Unknown
Orbital elements
Apogee altitude
233.526 km
Perigee altitude
223.203 km
Semi-major axis
6,606.501 km
Eccentricity
0.00078
Inclination
97.4646°
RAAN
47.313°
Arg. of periapsis
271.6543°
True anomaly
88.4743°
Mean anomaly
88.3848°
Eccentric anomaly
88.42955°
Mean motion
4.0419 °/min
Orbital period
89.07 mins
BSTAR
0.001946
Loading maneuver chart data...
Computing Atmospheric mass density...
Loading historical data...
Loading historical data...
Loading historical data...
Loading historical data...
Loading historical data...
Loading historical data...
Loading historical data...

Documentation

Showing up to 5 results
|